Showing default

ICOR SV, 68127

Orbit data source: Space-Track

ICOR SV, 68127 is an American payload satellite in LEO that was launched on Thu, 12 Mar 2026 UTC launched from the Air Force Western Test Range (AFWTR). Payload-class satellites include a variety of spacecraft equipped with specific instruments for various scientific and technological missions. These include communications satellites like Starlink; space stations such as the ISS; scientific satellites like the Hubble; Earth observation satellites from companies like Planet Labs, Umbra, and HawkEye 360; GPS; miniature CubeSats for education and research; and military/defense satellites.

Loading next visibility...
Identifier
68127, 2026-046A
Orbit
LEO
Country
Flag of USUS
Related business
None
Manufacturer
Unknown
Mission
Spacecraft
Bus & Motor
Unknown
Mass
Unknown
Launch date (UTC)
2026-03-12 (2 days ago)
Launch vehicle
Unknown
Launch site
Air Force Western Test Range (AFWTR)
Object type
Payload
Rocket body
Debris
Shape & HBR
Unknown
Radar Cross Section
RCS unknown

Expand to show TLE details & history
Last TLE update: 1 day ago

TLE from 1 day ago
0 ICOR SV
1 68127U 26046A   26071.39814851  .00008997  00000-0  13412-3 0  9994
2 68127 123.0910 217.1439 0012939 340.0677  19.9876 15.55991134    58
Epoch: 2026-03-12T09:33Z
TLE epoch observation values (Epoch: 2026-03-12T09:33:20.031Z)
Latitude
-0.00004°
Longitude
-96.23815°
Altitude
392.342 km
Speed
7.68 km/s
True Right ascension
14h 28m 34s
True Declination
0° 00' 00"
Sunlit
Object was in full shadow at epoch
Visualization orbit readout
Latitude
Unknown
Longitude
Unknown
Altitude
Unknown
Speed
Unknown
Apparent Right ascension
Unknown
Apparent Declination
Unknown
Sunlit
N/A
Visualization observer readout
Local Sidereal Time
00:51:44
Azimuth
Unknown
Elevation
Unknown
Doppler factor
Unknown
Orbital elements
Apogee altitude
407.702 km
Perigee altitude
390.165 km
Semi-major axis
6,777.071 km
Eccentricity
0.00129
Inclination
123.091°
RAAN
217.1439°
Arg. of periapsis
340.0677°
True anomaly
20.03836°
Mean anomaly
19.9876°
Eccentric anomaly
20.01297°
Mean motion
3.89027 °/min
Orbital period
92.54 mins
BSTAR
0.00013412
Loading maneuver chart data...
Computing Atmospheric mass density...
Loading historical data...
Loading historical data...
Loading historical data...
Loading historical data...
Loading historical data...
Loading historical data...
Loading historical data...
Other satellites on launch #46 in the year 2026 (2026-03-12 UTC)

Documentation

Showing up to 5 results
|